ASL310 LYNI-LDRI

Flight info

Callsign ASL310
Flight time N/A
Altitude 34000
Route RAVAK DCT NANER DCT VEBAR DCT BOSNA DCT NAVSU DCT KULEN
Aircraft A320/M-SDE3FGHIRWY/LB1

Departure

Time 2026-05-09 11:20
Airport Niš Constantine the Great Airport (LYNI)

Arrival

Time N/A
Airport Rijeka Airport (LDRI)
Time Latitude Longitude Altitude Speed Heading
2026-05-09 10:58 43.33730 21.86465 638 ft 0 kts 24°
2026-05-09 11:15 43.33733 21.86466 636 ft 2 kts 23°
2026-05-09 11:16 43.33740 21.86496 639 ft 5 kts 95°
2026-05-09 11:16 43.33711 21.86540 636 ft 7 kts 136°
2026-05-09 11:16 43.33671 21.86591 636 ft 8 kts 137°
2026-05-09 11:16 43.33626 21.86652 636 ft 10 kts 138°
2026-05-09 11:17 43.33562 21.86696 638 ft 11 kts 161°
2026-05-09 11:17 43.33492 21.86697 638 ft 11 kts 197°
2026-05-09 11:17 43.33416 21.86654 635 ft 13 kts 204°
2026-05-09 11:17 43.33331 21.86661 634 ft 14 kts 139°
2026-05-09 11:18 43.33284 21.86779 634 ft 15 kts 114°
2026-05-09 11:18 43.33269 21.86894 634 ft 12 kts 75°
2026-05-09 11:18 43.33256 21.86924 638 ft 4 kts 198°
2026-05-09 11:18 43.33252 21.86885 640 ft 5 kts 284°
2026-05-09 11:19 43.33255 21.86876 642 ft 0 kts 290°
2026-05-09 11:19 43.33256 21.86870 643 ft 4 kts 290°
2026-05-09 11:19 43.33337 21.86618 636 ft 63 kts 294°
2026-05-09 11:19 43.33595 21.85805 645 ft 119 kts 294°
2026-05-09 11:20 43.33848 21.85009 640 ft 149 kts 294°
2026-05-09 11:20 43.34477 21.83287 1429 ft 150 kts 308°
2026-05-09 11:20 43.35260 21.82359 2254 ft 150 kts 329°
2026-05-09 11:20 43.36268 21.81702 2806 ft 169 kts 338°
2026-05-09 11:21 43.37412 21.81095 3442 ft 184 kts 339°
2026-05-09 11:21 43.38217 21.80666 3906 ft 190 kts 340°
2026-05-09 11:21 43.39490 21.79966 4593 ft 204 kts 339°
2026-05-09 11:21 43.40836 21.79212 5261 ft 215 kts 339°
2026-05-09 11:22 43.42261 21.78392 5867 ft 229 kts 338°
2026-05-09 11:22 43.43770 21.77507 6462 ft 241 kts 338°
2026-05-09 11:22 43.45338 21.76548 7018 ft 252 kts 336°
2026-05-09 11:22 43.46970 21.75519 7590 ft 263 kts 336°
2026-05-09 11:23 43.48670 21.74470 8198 ft 272 kts 337°
2026-05-09 11:23 43.50419 21.73436 8928 ft 275 kts 337°
2026-05-09 11:23 43.52200 21.72399 9646 ft 280 kts 337°
2026-05-09 11:23 43.54005 21.71353 10349 ft 283 kts 337°
2026-05-09 11:24 43.55637 21.70404 10978 ft 285 kts 337°
2026-05-09 11:24 43.57475 21.69333 11657 ft 287 kts 337°
2026-05-09 11:24 43.59206 21.68322 12293 ft 290 kts 337°
2026-05-09 11:24 43.60708 21.67443 12820 ft 292 kts 337°
2026-05-09 11:25 43.62410 21.66438 13250 ft 245 kts 336°
2026-05-09 11:25 43.63869 21.65551 13502 ft 215 kts 335°
2026-05-09 11:25 43.65138 21.64732 13562 ft 189 kts 334°
2026-05-09 11:25 43.66148 21.64032 13404 ft 171 kts 333°
2026-05-09 11:26 43.67244 21.63246 12570 ft 190 kts 332°
2026-05-09 11:26 43.68480 21.62314 11721 ft 212 kts 330°
2026-05-09 11:26 43.69806 21.61268 11059 ft 227 kts 329°
2026-05-09 11:26 43.71192 21.60121 10566 ft 235 kts 328°
2026-05-09 11:27 43.72586 21.58894 10151 ft 239 kts 327°
2026-05-09 11:27 43.73985 21.57636 9775 ft 240 kts 327°
2026-05-09 11:27 43.75386 21.56371 9430 ft 240 kts 327°
2026-05-09 11:27 43.76783 21.55110 9084 ft 239 kts 327°
2026-05-09 11:28 43.78154 21.53830 8761 ft 236 kts 325°
2026-05-09 11:28 43.79482 21.52544 8477 ft 229 kts 324°
2026-05-09 11:28 43.80749 21.51287 8192 ft 218 kts 324°
2026-05-09 11:28 43.81941 21.50098 7979 ft 211 kts 329°
2026-05-09 11:29 43.83233 21.49040 7911 ft 220 kts 334°
2026-05-09 11:29 43.84588 21.48048 8024 ft 219 kts 336°
2026-05-09 11:29 43.85956 21.47107 8015 ft 218 kts 336°
2026-05-09 11:29 43.87270 21.46270 7981 ft 204 kts 335°
2026-05-09 11:30 43.88622 21.45402 7812 ft 228 kts 335°
2026-05-09 11:30 43.90177 21.44336 8007 ft 266 kts 333°